DECAYED

YUNHAI 1-02 DEB, 48193 (Decayed)

Orbit data source: Space-Track

YUNHAI 1-02 DEB, 48193 was space debris in SSO originally from a launch on Wed, 25 Sep 2019 UTC launched from the Jiuquan Satellite Launch Center, China (JSC). Debris objects in space refer to the collection of defunct objects orbiting the Earth. Examples of debris include non-operational satellites, rocket bodies, and fragments generated from explosions, collisions, or faulty payload assembly.

Loading next visibility...
Identifier
48193, 2019-063M
Orbit
Decayed
Country
Flag of CNCN / PRC
Related business
Manufacturer
Unknown
Mission
Decayed spacecraft
Bus & Motor
Unknown
Mass
Unknown
Launch date (UTC)
2019-09-25 (7 years ago)
Launch vehicle
Unknown
Launch site
Jiuquan Satellite Launch Center, China (JSC)
Object type
Payload
Rocket body
Debris
Shape & HBR
Unknown shape, 0.1 m
Radar Cross Section
Medium (>0.1 m² and <1 m²)

Expand to show TLE details & history
Last TLE update: 4 months ago

TLE from 4 months ago
0 YUNHAI 1-02 DEB
1 48193U 19063M   26060.65853296  .07000527  67616-1  29306-1 0  9991
2 48193  98.3660 117.8059 0008894 283.0956  76.9321 15.90185030261113
Epoch: 2026-03-01T15:48Z
TLE epoch observation values (Epoch: 2026-03-01T15:48:17.247Z)
Latitude
-0.00005°
Longitude
81.27091°
Altitude
303.581 km
Speed
7.726 km/s
True Right ascension
07h 51m 13s
True Declination
0° 00' 00"
Sunlit
Object was in full shadow at epoch
Visualization orbit readout
Latitude
Unknown
Longitude
Unknown
Altitude
Unknown
Speed
Unknown
Apparent Right ascension
Unknown
Apparent Declination
Unknown
Sunlit
N/A
Visualization observer readout
Local Sidereal Time
21:30:10
Azimuth
Unknown
Elevation
Unknown
Doppler factor
Unknown
Orbital elements
Apogee altitude
304.621 km
Perigee altitude
292.744 km
Semi-major axis
6,676.82 km
Eccentricity
0.00089
Inclination
98.366°
RAAN
117.8059°
Arg. of periapsis
283.0956°
True anomaly
77.0314°
Mean anomaly
76.9321°
Eccentric anomaly
76.98175°
Mean motion
3.97822 °/min
Orbital period
90.49 mins
BSTAR
0.029306

Documentation

Showing up to 5 results
|